Regional Weather Roundup
Issued by NWS

Home | Current Version | Previous Version | Graphics & Text | Print | Product List | Glossary On
Versions: 1 2 3 4 5 6 7 8 9 10 11 12 13 14 15 16 17 18 19 20 21 22 23 24 25 26 27 28 29 30 31 32 33 34 35 36 37 38 39 40 41 42 43 44 45 46 47 48 49 50
000
ASUS43 KIND 220409
RWRIN

WEATHER ROUNDUP FOR INDIANA
NATIONAL WEATHER SERVICE INDIANAPOLIS IN
1100 PM EST SUN DEC 21 2014

NOTE: "FAIR" INDICATES FEW OR NO CLOUDS BELOW 12,000 FEET WITH NO
SIGNIFICANT WEATHER AND/OR OBSTRUCTIONS TO VISIBILITY.

* - STATION DOES NOT REPORT WEATHER SUCH AS PRECIPITATION OR FOG.

+ - STATION NOT QUALITY CONTROLLED BY THE NATIONAL WEATHER SERVICE.
    USE DATA WITH CAUTION...ESPECIALLY DEWPOINT AND RELATIVE
    HUMIDITY OBSERVATIONS.

INZ001>003-010>013-019-020-220500-
NORTHWEST INDIANA

CITY           SKY/WX    TMP DP  RH WIND       PRES   REMARKS
GARY /AIRPORT/ PTCLDY    34  26  72 SE10      30.06F WCI  26
KNOX *+        PTCLDY    31  24  76 SE10      30.08F WCI  22
LA PORTE +     MOCLDY    32  29  88 SE6       30.08F FOG     WCI  26
MICHIGAN CITY+ PTCLDY    32  25  74 SE6       30.08F WCI  26
MONTICELLO +   PTCLDY    31  28  88 SE3       30.08S
RENSSELAER +   CLEAR     32  32 100 SE9       30.08S FOG     WCI  24
VALPARAISO     PTCLDY    30  26  85 SE9       30.08F WCI  22

$$

LMZ046-743>745-220500-
SOUTHERN LAKE MICHIGAN

STATION/POSITION TIME  TEMP WIND        PRES
                       AIR  DIR/SP/G
                 (UTC) (F)  (DEG/KT/KT) (MB)

$$

INZ004-005-014>016-021>024-220500-
NORTH CENTRAL INDIANA

CITY           SKY/WX    TMP DP  RH WIND       PRES   REMARKS
GOSHEN         PTCLDY    29  25  85 SE9       30.11F WCI  20
LOGANSPORT +   PTCLDY    30  27  86 SE8       30.10F FOG     WCI  23
PERU/GRISSOM   PTCLDY    30  30 100 SE9       30.09F WCI  22
ROCHESTER +    PTCLDY    32  30  93 SE10      30.10F FOG     WCI  24
SOUTH BEND     PTCLDY    32  25  75 SE12      30.10  WCI  23
WARSAW +       PTCLDY    30  27  86 SE5       30.11F FOG     WCI  25

$$

INZ006>009-017-018-025>027-220500-
NORTHEAST INDIANA

CITY           SKY/WX    TMP DP  RH WIND       PRES   REMARKS
ANGOLA *+      CLEAR     27  25  93 SE7       30.13F WCI  19
AUBURN +       CLEAR     28  25  86 E5        30.15S FOG     WCI  23
FORT WAYNE     PTCLDY    28  24  85 E5        30.14F WCI  23
HUNTINGTON +   MOCLDY    28  25  88 SE5       30.12F WCI  23

$$

INZ028-029-035-036-043>045-051>053-220500-
WEST CENTRAL INDIANA

CITY           SKY/WX    TMP DP  RH WIND       PRES   REMARKS
GREENCASTLE +  PTCLDY    30  25  80 E7        30.07F WCI  23
LAFAYETTE      PTCLDY    28  25  88 E6        30.08F WCI  22
TERRE HAUTE    PTCLDY    31  27  85 SE7       30.06F WCI  24

$$

INZ030>032-037>040-046>048-054>057-064-065-220500-
CENTRAL INDIANA

CITY           SKY/WX    TMP DP  RH WIND       PRES   REMARKS
CP ATTERBURY + PTCLDY    30  27  86 MISG      30.11S
FRANKFORT +    PTCLDY    30  28  90 E8        30.10S FOG     WCI  23
INDIANAPOLIS   MOCLDY    29  25  85 SE8       30.09R WCI  21
-EAGLE CREEK   PTCLDY    31  25  78 SE6       30.10R WCI  25
KOKOMO *+      PTCLDY    30  25  80 SE7       30.09F WCI  23
MARION +       MOCLDY    29  25  84 SE8       30.10F WCI  22
MT COMFORT *+  MOCLDY    30  23  74 SE6       30.10S WCI  24
SHELBYVILLE    PTCLDY    31  26  82 E8        30.10F WCI  23
ZIONSVILLE +   PTCLDY    31  25  77 SE8       30.10R WCI  24

$$

INZ033-034-041-042-049-050-058-059-220500-
EAST CENTRAL INDIANA

CITY           SKY/WX    TMP DP  RH WIND       PRES   REMARKS
MUNCIE         MOCLDY    30  25  81 SE12      30.10F WCI  20

$$

INZ060-061-067>069-081>083-085>088-220500-
SOUTHWEST INDIANA

CITY           SKY/WX    TMP DP  RH WIND       PRES   REMARKS
EVANSVILLE     CLEAR     35  27  72 NE5       30.06S WCI  31
HUNTINGBURG *+ CLEAR     34  27  75 E6        30.05F WCI  29
WASHINGTON +   PTCLDY    32  27  82 SE5       30.06F WCI  27

$$

INZ062-063-066-070>080-084-089>092-220500-
SOUTH CENTRAL AND SOUTHEAST INDIANA

CITY           SKY/WX    TMP DP  RH WIND       PRES   REMARKS
BLOOMINGTON    PTCLDY    30  27  88 SE7       30.07F WCI  23

$$



USA.gov is the U.S. government's official web portal to all federal, state and local government web resources and services.